User: anonymous   Login
Location: Klein M�hlingen
(51.9472°N, 11.7453°E)
Time: 15:27:44
(UTC+00:00)
Language:

STARLINK-1143 - Orbit

View from above orbital plane
View from above orbital plane
View from above satellite
View from above satellite

Ground track
Ground track

The orbit data is extracted from the following two-line orbital elements,

1 45179C 20012B   21164.10248674  .00002030  00000-0  13606-3 0  1645
2 45179  53.0538 255.5381 0001216 103.7665 313.5373 15.06387616    18
Epoch (UTC): 13 June 2021 02:27:34
Eccentricity: 0.0001216
inclination: 53.0538°
perigee height: 546 km
apogee height: 548 km
right ascension of ascending node: 255.5381°
argument of perigee: 103.7665°
revolutions per day: 15.06387616
mean anomaly at epoch: 313.5373°
orbit number at epoch: 1

The dashed part of the orbit path shows where the satellite is in the earth's shadow,  

DLR